Location: Tom
(33.0437°N, 96.9452°W)
Time: 15:47:59
(UTC-06:00)

N. Korean satellite - Pass Details

Date: 25 January 2019
Orbit: 456 x 510 km, 97.2° (Epoch: 21 February)

Event Time Altitude Azimuth Distance (km) Brightness Sun altitude
Rises 18:21:32 0° 183° (S) 2,569 10.5 -6.4°
Reaches altitude 10° 18:23:40 10° 190° (S) 1,698 9.7 -6.8°
Maximum altitude 18:27:08 40° 262° (W) 748 8.2 -7.5°
Drops below altitude 10° 18:30:40 10° 333° (NNW) 1,728 9.5 -8.2°
Sets 18:32:52 0° 341° (NNW) 2,621 10.3 -8.7°
